Flag for Poland Weather past 2 weeks in Legnica, Poland

Now
36 °F

Overcast.


Feels Like: 31 °F
Forecast: 31 / 40 °F
Wind: 6 mph from South

Location: Wroclaw Ii

Current Time: Jan 29, 2015 at 10:28:58 PM

Latest Report: Jan 29, 2015 at 9:00 PM


Visibility: 25 mi

Pressure: 29.18 "Hg

Humidity: 67%

Dew point: 26 °F

Location of LegnicaLocation

Historic Weather in Legnica — Graph

°F

Legnica temperature yesterday

Maximum temperature yesterday: 41 °F (at 1:00 PM)
Minimum temperature yesterday: 35 °F (at 10:00 PM)
Average temperature yesterday: 37 °F

Past Weeks' High & Low Weather Summary

 TemperatureHumidityPressure
High51 °F (Jan 16, 2:00 PM)98% (Jan 19, 4:00 AM)30.32 "Hg (Jan 19, 4:00 AM)
Low28 °F (Jan 26, 9:00 PM)51% (Jan 29, 2:00 PM)29.18 "Hg (Jan 29, 9:00 PM)
Average36 °F85%29.98 "Hg
* Reported Jan 14 9:00 PM — Jan 29 9:00 PM, Legnica, Weather by CustomWeather, © 2014

Note: Actual official high and low records may vary slightly from our data, if they occured in-between our weather recording intervals... More about our weather records

Advertising

Legnica weather history for previous 24 hours

 ConditionsComfort  
Time TempWeatherWind HumidityBarometerVisibility
9:00 PM
Jan 29
36 °FOvercast.6 mph67%29.18 "Hg25 mi
8:00 PM35 °FOvercast.6 mph72%29.21 "Hg25 mi
7:00 PM35 °FPassing clouds.6 mph68%29.23 "Hg25 mi
6:00 PM35 °FPassing clouds.5 mph68%29.26 "Hg25 mi
5:00 PM35 °FPassing clouds.25 mph63%29.26 "Hg1 mi
4:00 PM39 °FPassing clouds.6 mph54%29.29 "Hg31 mi
3:00 PM40 °FPassing clouds.9 mph52%29.32 "Hg31 mi
2:00 PM41 °FPassing clouds.9 mph51%29.35 "Hg31 mi
1:00 PM41 °FPassing clouds.28 mph55%29.35 "Hg6 mi
12:00 PM41 °FPassing clouds.8 mph56%29.38 "Hg31 mi
11:00 AM40 °FScattered clouds.6 mph57%29.41 "Hg31 mi
10:00 AM37 °FPassing clouds.23 mph69%29.41 "Hg6 mi
9:00 AM36 °FOvercast.6 mph75%29.41 "Hg31 mi
8:00 AM36 °FOvercast.6 mph77%29.41 "Hg31 mi
7:00 AM36 °FOvercast.5 mph76%29.38 "Hg31 mi
6:00 AM37 °FOvercast.6 mph72%29.38 "Hg31 mi
5:00 AM38 °FOvercast.8 mph69%29.38 "Hg31 mi
3:00 AM38 °FOvercast.8 mph68%29.38 "Hg31 mi
2:00 AM39 °FOvercast.8 mph63%29.41 "Hg31 mi
1:00 AMN/APassing clouds.52 mphN/AN/A1 mi
12:00 AM39 °FOvercast.8 mph63%29.47 "Hg31 mi
11:00 PM
Jan 28
36 °FOvercast.6 mph73%29.50 "Hg25 mi
10:00 PM35 °FOvercast.3 mph76%29.56 "Hg25 mi
Weather by CustomWeather, © 2014

See weather overviewHow to use our weather pages